timestamp,surface_pressure_avg,surface_temp_avg,battery_voltage,lat,long
2020-05-20 00:09:01+00:00,295.6113,3.9,13.29,47.84626,-54.09684
2020-05-20 00:19:01+00:00,289.7897,3.9,12.89,47.84626,-54.09684
2020-05-20 00:29:01+00:00,285.2381,3.9,12.89,47.84626,-54.09684
2020-05-20 00:39:01+00:00,277.5814,3.9,12.89,47.84626,-54.09684
2020-05-20 00:49:01+00:00,267.2131,3.9,12.89,47.84626,-54.09684
2020-05-20 00:59:01+00:00,260.5797,3.9,12.89,47.84626,-54.09684
2020-05-20 01:09:01+00:00,255.8914,4.24,12.89,47.84626,-54.09684
2020-05-20 01:19:01+00:00,249.7248,4.6,12.73,47.84626,-54.09684
2020-05-20 01:29:01+00:00,241.5564,4.7,12.73,47.84626,-54.09684
2020-05-20 01:39:01+00:00,236.0497,4.7,12.73,47.84626,-54.09684
2020-05-20 01:49:01+00:00,231.4914,4.7,12.73,47.84626,-54.09684
2020-05-20 01:59:01+00:00,225.0531,4.7,12.73,47.84626,-54.09684
2020-05-20 02:09:01+00:00,217.2831,4.7,12.73,47.84626,-54.09684
2020-05-20 02:19:01+00:00,210.6548,4.72,12.65,47.84626,-54.09684
2020-05-20 02:29:01+00:00,204.9348,4.82,12.65,47.84626,-54.09684
2020-05-20 02:39:01+00:00,199.6165,4.87,12.65,47.84626,-54.09684
2020-05-20 02:49:01+00:00,191.9148,4.7,12.65,47.84626,-54.09684
2020-05-20 02:59:01+00:00,187.4015,4.6,12.65,47.84626,-54.09684
2020-05-20 03:09:01+00:00,185.4031,4.5,12.65,47.84626,-54.09684
2020-05-20 03:19:01+00:00,182.0331,4.6,12.65,47.84626,-54.09684
2020-05-20 03:29:01+00:00,179.5981,4.7,12.65,47.84626,-54.09684
2020-05-20 03:39:01+00:00,179.9848,4.7,12.65,47.84626,-54.09684
2020-05-20 03:49:01+00:00,180.9266,4.74,12.65,47.84626,-54.09684
2020-05-20 03:59:01+00:00,179.8165,4.8,12.65,47.84626,-54.09684
2020-05-20 04:09:01+00:00,179.3532,4.83,12.65,47.84626,-54.09684
2020-05-20 04:19:01+00:00,181.8082,4.8,12.65,47.84626,-54.09684
2020-05-20 04:29:01+00:00,183.0998,4.82,12.65,47.84626,-54.09684
2020-05-20 04:39:01+00:00,184.0132,4.9,12.65,47.84626,-54.09684
2020-05-20 04:49:01+00:00,187.5531,4.9,12.65,47.84626,-54.09684
2020-05-20 04:59:01+00:00,191.1081,4.9,12.65,47.84626,-54.09684
2020-05-20 05:09:01+00:00,193.1297,4.9,12.65,47.84626,-54.09684
2020-05-20 05:19:01+00:00,195.2848,4.96,12.65,47.84626,-54.09684
2020-05-20 05:29:01+00:00,198.8981,4.9,12.65,47.84626,-54.09684
2020-05-20 05:39:01+00:00,201.0148,4.94,12.65,47.84626,-54.09684
2020-05-20 05:49:01+00:00,202.4081,4.98,12.65,47.84626,-54.09684
2020-05-20 05:59:01+00:00,207.0581,4.94,12.65,47.84626,-54.09684
2020-05-20 06:09:01+00:00,212.1648,4.9,12.65,47.84626,-54.09684
2020-05-20 06:19:01+00:00,214.9181,4.8,12.57,47.84626,-54.09684
2020-05-20 06:29:01+00:00,219.7098,4.8,12.57,47.84626,-54.09684
2020-05-20 06:39:01+00:00,225.6498,4.6,12.57,47.84626,-54.09684
2020-05-20 06:49:01+00:00,229.6998,4.5,12.57,47.84626,-54.09684
2020-05-20 06:59:01+00:00,232.2764,4.3,12.57,47.84626,-54.09684
2020-05-20 07:09:01+00:00,235.7198,4.2,12.57,47.84626,-54.09684
2020-05-20 07:19:01+00:00,241.5597,4.11,12.57,47.84626,-54.09684
2020-05-20 07:29:01+00:00,245.523,4.14,12.57,47.84626,-54.09684
2020-05-20 07:39:01+00:00,248.8064,4.18,12.57,47.84626,-54.09684
2020-05-20 07:49:01+00:00,255.0681,4.18,12.57,47.84626,-54.09684
2020-05-20 07:59:01+00:00,263.2264,4.1,12.57,47.84626,-54.09684
2020-05-20 08:09:01+00:00,266.6996,4.1,12.57,47.84626,-54.09684
2020-05-20 08:19:01+00:00,268.8497,4.1,12.57,47.84626,-54.09684
2020-05-20 08:29:01+00:00,275.9897,4.0,12.57,47.84626,-54.09684
2020-05-20 08:39:01+00:00,284.798,3.9,12.57,47.84626,-54.09684
2020-05-20 08:49:01+00:00,287.8214,3.9,12.57,47.84626,-54.09684
2020-05-20 08:59:01+00:00,290.9948,3.8,12.57,47.84626,-54.09684
2020-05-20 09:09:01+00:00,296.6881,3.83,12.57,47.84626,-54.09684
2020-05-20 09:19:01+00:00,301.4332,3.8,12.57,47.84626,-54.09684
2020-05-20 09:29:01+00:00,301.0397,3.8,12.57,47.84626,-54.09684
2020-05-20 09:39:01+00:00,300.7814,3.8,12.57,47.84626,-54.09684
2020-05-20 09:49:01+00:00,305.4496,3.78,12.57,47.84626,-54.09684
2020-05-20 09:59:01+00:00,308.2079,3.75,12.57,47.84626,-54.09684
2020-05-20 10:09:01+00:00,306.9497,3.79,12.57,47.84626,-54.09684
2020-05-20 10:19:01+00:00,306.7112,3.77,12.81,47.84626,-54.09684
2020-05-20 10:29:01+00:00,308.8348,3.79,12.81,47.84626,-54.09684
2020-05-20 10:39:01+00:00,309.5215,3.8,12.81,47.84626,-54.09684
2020-05-20 10:49:01+00:00,306.1163,3.74,12.81,47.84626,-54.09684
2020-05-20 10:59:01+00:00,304.7297,3.83,12.81,47.84626,-54.09684
2020-05-20 11:09:01+00:00,305.8564,3.82,12.81,47.84626,-54.09684
2020-05-20 11:19:01+00:00,306.6564,3.8,14.16,47.84626,-54.09684
2020-05-20 11:29:01+00:00,303.0497,3.85,14.16,47.84626,-54.09684
2020-05-20 11:39:01+00:00,300.1996,3.9,14.16,47.84626,-54.09684
2020-05-20 11:49:01+00:00,300.2363,3.87,14.16,47.84626,-54.09684
2020-05-20 11:59:01+00:00,299.0114,3.9,14.16,47.84626,-54.09684
2020-05-20 12:09:01+00:00,292.493,4.1,14.16,47.84626,-54.09684
2020-05-20 12:19:01+00:00,287.4497,4.45,14.32,47.84626,-54.09684
2020-05-20 12:29:01+00:00,284.2764,4.78,14.32,47.84626,-54.09684
2020-05-20 12:39:01+00:00,279.1731,4.9,14.32,47.84626,-54.09684
2020-05-20 12:49:01+00:00,273.1464,5.08,14.32,47.84626,-54.09684
2020-05-20 12:59:01+00:00,269.0881,5.3,14.32,47.84626,-54.09684
2020-05-20 13:09:01+00:00,263.6014,5.36,14.32,47.84626,-54.09684
2020-05-20 13:19:01+00:00,255.0365,5.3,14.24,47.84626,-54.09684
2020-05-20 13:29:01+00:00,247.0048,5.2,14.24,47.84626,-54.09684
2020-05-20 13:39:01+00:00,244.0297,5.28,14.24,47.84626,-54.09684
2020-05-20 13:49:01+00:00,238.5231,5.3,14.24,47.84626,-54.09684
2020-05-20 13:59:01+00:00,228.9081,5.3,14.24,47.84626,-54.09684
2020-05-20 14:09:01+00:00,221.7797,5.29,14.24,47.84626,-54.09684
2020-05-20 14:19:01+00:00,220.3214,5.28,14.48,47.84626,-54.09684
2020-05-20 14:29:01+00:00,214.3748,5.2,14.48,47.84626,-54.09684
2020-05-20 14:39:01+00:00,204.7081,5.18,14.48,47.84626,-54.09684
2020-05-20 14:49:01+00:00,199.4631,5.1,14.48,47.84626,-54.09684
2020-05-20 14:59:01+00:00,195.5948,5.1,14.48,47.84626,-54.09684
2020-05-20 15:09:01+00:00,188.1565,5.17,14.48,47.84626,-54.09684
2020-05-20 15:19:01+00:00,184.2548,5.19,14.32,47.84626,-54.09684
2020-05-20 15:29:01+00:00,184.8231,5.19,14.32,47.84626,-54.09684
2020-05-20 15:39:01+00:00,184.3432,5.18,14.32,47.84626,-54.09684
2020-05-20 15:49:01+00:00,179.7398,5.17,14.32,47.84626,-54.09684
2020-05-20 15:59:01+00:00,178.7231,5.1,14.32,47.84626,-54.09684
2020-05-20 16:09:01+00:00,181.9415,5.0,14.32,47.84626,-54.09684
2020-05-20 16:19:01+00:00,182.3348,5.0,14.32,47.84626,-54.09684
2020-05-20 16:29:01+00:00,180.2764,4.99,14.32,47.84626,-54.09684
2020-05-20 16:39:01+00:00,182.0748,4.94,14.32,47.84626,-54.09684
2020-05-20 16:49:01+00:00,188.8131,4.9,14.32,47.84626,-54.09684
2020-05-20 16:59:01+00:00,191.8249,4.9,14.32,47.84626,-54.09684
2020-05-20 17:09:01+00:00,190.9082,4.9,14.32,47.84626,-54.09684
2020-05-20 17:19:01+00:00,193.0314,4.89,14.4,47.84626,-54.09684
2020-05-20 17:29:01+00:00,199.5314,4.89,14.4,47.84626,-54.09684
2020-05-20 17:39:01+00:00,204.5031,4.7,14.4,47.84626,-54.09684
2020-05-20 17:49:01+00:00,207.5664,4.69,14.4,47.84626,-54.09684
2020-05-20 17:59:01+00:00,211.6081,4.6,14.4,47.84626,-54.09684
2020-05-20 18:09:01+00:00,214.6914,4.5,14.4,47.84626,-54.09684
2020-05-20 18:19:01+00:00,218.0098,4.5,14.32,47.84626,-54.09684
2020-05-20 18:29:01+00:00,221.8515,4.4,14.32,47.84626,-54.09684
2020-05-20 18:39:01+00:00,226.8314,4.2,14.32,47.84626,-54.09684
2020-05-20 18:49:01+00:00,232.2947,4.3,14.32,47.84626,-54.09684
2020-05-20 18:59:01+00:00,237.2231,4.4,14.32,47.84626,-54.09684
2020-05-20 19:09:01+00:00,241.5681,4.1,14.32,47.84626,-54.09684
2020-05-20 19:19:01+00:00,246.5464,4.0,14.0,47.84626,-54.09684
2020-05-20 19:29:01+00:00,252.8931,3.9,14.0,47.84626,-54.09684
2020-05-20 19:39:01+00:00,257.5614,3.8,14.0,47.84626,-54.09684
2020-05-20 19:49:01+00:00,262.0814,3.7,14.0,47.84626,-54.09684
2020-05-20 19:59:01+00:00,268.2331,3.6,14.0,47.84626,-54.09684
2020-05-20 20:09:01+00:00,275.9847,3.54,14.0,47.84626,-54.09684
2020-05-20 20:19:01+00:00,281.178,3.46,14.0,47.84626,-54.09684
2020-05-20 20:29:01+00:00,286.4631,3.6,14.0,47.84626,-54.09684
2020-05-20 20:39:01+00:00,292.2964,3.5,14.0,47.84626,-54.09684
2020-05-20 20:49:01+00:00,298.6114,3.41,14.0,47.84626,-54.09684
2020-05-20 20:59:01+00:00,304.4714,3.4,14.0,47.84626,-54.09684
2020-05-20 21:09:01+00:00,310.8363,3.32,14.0,47.84626,-54.09684
2020-05-20 21:19:01+00:00,315.9547,3.31,13.92,47.84626,-54.09684
2020-05-20 21:29:01+00:00,319.5347,3.45,13.92,47.84626,-54.09684
2020-05-20 21:39:01+00:00,321.6346,3.5,13.92,47.84626,-54.09684
2020-05-20 21:49:01+00:00,324.323,3.3,13.92,47.84626,-54.09684
2020-05-20 21:59:01+00:00,326.363,3.26,13.92,47.84626,-54.09684
2020-05-20 22:09:01+00:00,328.2363,3.34,13.92,47.84626,-54.09684
2020-05-20 22:19:01+00:00,327.6729,3.44,13.68,47.84626,-54.09684
2020-05-20 22:29:01+00:00,329.408,3.6,13.68,47.84626,-54.09684
2020-05-20 22:39:01+00:00,332.2947,3.6,13.68,47.84626,-54.09684
2020-05-20 22:49:01+00:00,331.0146,3.5,13.68,47.84626,-54.09684
2020-05-20 22:59:01+00:00,330.6013,3.54,13.68,47.84626,-54.09684
2020-05-20 23:09:01+00:00,331.48800000000006,3.6,13.68,47.84626,-54.09684
2020-05-20 23:19:01+00:00,332.1379,3.66,13.29,47.84626,-54.09684
2020-05-20 23:29:01+00:00,329.0846,3.67,13.29,47.84626,-54.09684
2020-05-20 23:39:01+00:00,325.9879,3.65,13.29,47.84626,-54.09684
2020-05-20 23:49:01+00:00,324.283,3.68,13.29,47.84626,-54.09684
2020-05-20 23:59:01+00:00,321.4263,3.68,13.29,47.84626,-54.09684
